Regional Weather Roundup
Issued by NWS Charleston, SC

Current Version | Previous Version | Graphics & Text | Print | Product List | Glossary On
Versions: 1 2 3 4 5 6 7 8 9 10 11 12 13 14 15 16 17 18 19 20 21 22 23 24 25 26 27 28 29 30 31 32 33 34 35 36 37 38 39 40 41 42 43 44 45 46 47 48 49 50
000 ASUS42 KCHS 090112 RWRCHS REGIONAL WEATHER ROUNDUP NATIONAL WEATHER SERVICE CHARLESTON SC 800 PM EST THU DEC 08 2016 NOTE: "FAIR" INDICATES FEW OR NO CLOUDS BELOW 12,000 FEET WITH NO SIGNIFICANT WEATHER AND/OR OBSTRUCTIONS TO VISIBILITY. NOT ALL STATIONS ARE QUALITY CONTROLLED. USE DATA WITH CAUTION... ESPECIALLY DEWPOINT OBSERVATIONS. SCZ027-030-031-034>040-042>050-090200- ...SOUTHEAST SOUTH CAROLINA... CITY SKY/WX TMP DP RH WIND PRES REMARKS N CHARLESTON MOCLDY 54 43 66 NW13 30.21R WATERFRONT PRK N/A 57 48 72 NW5 30.17S MOUNT PLEASANT NOT AVBL JOHNS ISLAND FAIR 55 46 71 NW7 30.21R PINOPOLIS N/A 55 46 71 N16 30.10R MONCKS CORNER FAIR 54 39 58 N6 30.21R SUMMERVILLE FAIR 52 37 58 NW7 30.22R BEAUFORT MCAS PTCLDY 55 46 71 NW5 30.22R BEAUFORT ARPT FAIR 55 46 71 NW7 30.21R HILTON HEAD IS PTCLDY 57 45 62 NW8 30.22R WALTERBORO PTCLDY 52 41 66 N5 30.24R ALLENDALE FAIR 50 36 57 NW6G13 30.24R ...SOUTHERN MIDLANDS AND PEE DEE... CITY SKY/WX TMP DP RH WIND PRES REMARKS GEORGETOWN NOT AVBL KINGSTREE FAIR 46 39 76 CALM 30.22R ORANGEBURG PTCLDY 49 26 41 N10 30.24R BARNWELL NOT AVBL AIKEN FAIR 43 34 70 W7 30.28R MANNING FAIR 50 34 53 NW6 30.22R COLUMBIA CLOUDY 49 24 37 NW7 30.24R SUMTER MOCLDY 49 28 45 NW7 30.21R FLORENCE CLOUDY 48 29 47 N7 30.22R MYRTLE BEACH CLEAR 54 37 54 N13 30.21R N MYRTLE BEACH CLEAR 49 40 71 N6 30.19R $$ GAZ063-065-086>088-099>101-113>116-118-119-134>141-150-090200- ...SOUTHEAST GEORGIA... CITY SKY/WX TMP DP RH WIND PRES REMARKS SAVANNAH ARPT CLOUDY 56 37 49 NW13 30.24R HUNTER AAF PTCLDY 55 45 68 NW13 30.20R FORT STEWART CLOUDY 56 34 44 NW10 30.21R STATESBORO PTCLDY 51 31 46 NW13G18 30.26R SYLVANIA CLEAR N/A N/A N/A NW9 30.27R CLAXTON FAIR 52 31 44 W15 30.26R ...CSRA...CENTRAL AND FAR SOUTHEAST GEORGIA... CITY SKY/WX TMP DP RH WIND PRES REMARKS THOMSON CLOUDY 46 30 53 CALM 30.32R AUGUSTA-BUSH MOCLDY 49 25 39 NW10 30.27R AUGUSTA-DANIEL PTCLDY 47 23 38 W8 30.27R SWAINSBORO FAIR 46 28 49 MISG 30.29R VIDALIA PTCLDY 50 32 50 N10G17 30.27S EASTMAN FAIR 48 6 18 CALM 30.33R HAZLEHURST FAIR 52 28 39 N13 30.27R ALMA NOT AVBL WAYCROSS PTCLDY 57 40 54 N10 30.25R JESUP FAIR 55 41 58 N8G18 30.24S BAXLEY FAIR 54 34 47 N12 30.25S BRUNSWICK CLOUDY 55 45 67 NW5 30.23R SAINT SIMONS PTCLDY 58 40 51 NW7 30.21S $$ SCZ027-028-034-036>038-045-046-048>050-GAZ119-141-090200- ...LAKE AND SUPPLEMENTAL COASTAL OBSERVATIONS... STATION/POSITION TIME TEMP WIND PRES WAVE SWELL AIR SEA DIR/SP/G HT/PER HT/PER/DIR (UTC) (F) (DEG/KT/KT) (MB) (FT/S) (FT/S/D) WINYAH BAY 2345 54 340/ 2 1021.0 LAKE MURRAY 0020 47 330/ 2/ 6 1023.4R ACE BASIN NERRS 2345 56 350/ 2 1022.0 FORT PULASKI 0048 56 62 330/ 7/ 8 1023.3R SAPELO ISLAND 0000 57 320/ 5 1023.0 $$ ANZ835-935-AMZ111-154-330-350-352-354-370-450-454-472-090200- ...C-MAN AND BUOY OBSERVATIONS... STATION/POSITION TIME TEMP WIND PRES WAVE SWELL AIR SEA DIR/SP/G HT/PER HT/PER/DIR (UTC) (F) (DEG/KT/KT) (MB) (FT/S) (FT/S/D) BUOY 41004 0050 62 73 350/ 19/ 23 1020.5R 3/ 3 2/ 70/11 BUOY 41008 0050 61 64 340/ 19/ 21 1022.4R 3/ 4 2/ 70/11 FOLLY BEACH CMAN 0000 57 330/ 8/ 12 1022.3R CAPERS NEARSHORE 0008 57 61 330/ 16/ 19 1021.5R FRIPP NEARSHORE NOT AVBL STATION/POSITION TIME TEMP WIND PRES WAVE SWELL AIR SEA DIR/SP/G HT/PER HT/PER/DIR (UTC) (F) (DEG/KT/KT) (MB) (FT/S) (FT/S/D) 5E ST. MARYS GA 0030 65 N/A 2/11 FRYING PAN BUOY 0050 58 73 340/ 21/ 29 1021.3R 4/ 4 2/ 60/10 BUOY 41025 0050 53 77 330/ 21/ 25 1019.4R 5/ 4 2/ 60/10 CAPE LOOKOUT NC 0000 51 320/ 15/ 20 1020.3R BUOY 41002 0050 72 74 290/ 16/ 19 1017.2R 4/ 9 2/ 10/ 9 BUOY 41010 NOT AVBL ST AUGUSTINE FL 0000 62 67 330/ 8/ 11 1023.2R $$

USA.gov is the U.S. government's official web portal to all federal, state and local government web resources and services.